Date,TemperatureHighF,TemperatureAvgF,TemperatureLowF,DewpointHighF,DewpointAvgF,DewpointLowF,HumidityHigh,HumidityAvg,HumidityLow,PressureMaxIn,PressureMinIn,WindSpeedMaxMPH,WindSpeedAvgMPH,GustSpeedMaxMPH,PrecipitationSumIn
2012-1-1,70.5,53.9,44.0,29.8,27.4,23.5,50,37,22,30.12,30.03,7,1,7,0.00
2012-1-2,60.4,49.1,42.8,36.4,31.8,26.7,67,52,35,30.22,30.07,6,0,6,0.00
2012-1-3,60.9,48.8,41.9,42.0,33.4,27.0,74,57,35,30.28,30.18,5,1,6,0.00
2012-1-4,66.9,53.1,41.1,31.0,27.2,24.4,56,38,24,30.30,30.21,5,1,6,0.00
2012-1-5,67.6,51.1,40.1,36.1,29.9,25.8,63,46,24,30.25,30.09,5,1,6,0.00
2012-1-6,61.1,50.0,40.8,33.8,30.2,26.7,60,48,28,30.13,30.03,4,0,8,0.00
2012-1-7,69.0,52.4,36.8,35.6,23.5,13.4,71,39,17,30.13,30.03,11,2,15,0.00
2012-1-8,70.7,57.8,42.9,23.7,16.6,10.1,30,20,17,30.16,30.06,9,2,14,0.00
2012-1-9,69.0,50.2,39.5,28.6,20.9,13.1,46,32,20,30.16,30.06,5,1,6,0.00
2012-1-10,66.2,49.9,38.1,27.7,22.2,15.2,53,35,23,30.10,30.00,6,1,6,0.00
2012-1-11,66.5,49.6,36.8,26.8,18.9,14.1,43,30,20,30.07,29.97,5,1,5,0.00
2012-1-12,68.5,51.1,37.9,25.5,17.1,10.8,40,27,17,30.07,29.97,5,1,6,0.00
2012-1-13,70.1,52.6,41.0,26.7,18.4,11.9,35,26,19,30.15,30.06,4,1,6,0.00
2012-1-14,67.1,48.9,36.3,27.1,21.4,15.7,46,35,22,30.12,30.00,6,1,8,0.00
2012-1-15,51.4,44.4,35.7,30.9,23.1,11.1,55,43,31,30.08,29.95,8,2,11,0.00
2012-1-16,53.9,39.6,29.4,17.0,12.5,9.4,47,34,21,30.26,30.08,8,1,8,0.00
2012-1-17,55.0,39.7,28.7,23.5,17.0,13.4,57,41,25,30.34,30.23,6,1,8,0.00
2012-1-18,58.4,41.8,30.7,28.3,20.7,17.4,61,45,26,30.34,30.19,7,1,7,0.00
2012-1-19,51.6,44.4,35.0,36.2,28.2,21.1,69,54,31,30.19,29.98,5,0,6,0.08
2012-1-20,58.1,54.8,50.5,47.7,40.9,34.2,75,60,48,29.98,29.65,11,3,12,1.65
2012-1-21,56.3,49.6,41.0,47.9,29.9,21.6,76,49,27,30.07,29.65,12,2,13,0.16
2012-1-22,53.0,47.9,40.4,35.8,27.4,21.3,63,45,36,30.10,29.74,9,2,15,0.08
2012-1-23,53.4,50.9,47.6,45.6,39.8,34.6,77,66,52,30.10,29.59,10,2,14,0.47
2012-1-24,61.1,51.2,45.5,39.1,34.0,29.0,70,54,31,30.34,30.07,5,0,6,0.00
2012-1-25,67.4,53.5,42.9,47.5,35.3,31.3,74,53,27,30.37,30.27,5,1,8,0.00
2012-1-26,57.3,54.5,49.8,49.5,42.6,38.4,76,65,53,30.30,30.18,4,0,6,0.00
2012-1-27,68.9,52.8,42.4,48.0,28.2,12.3,76,45,17,30.21,30.13,6,0,8,0.00
2012-1-28,69.0,52.4,39.5,24.9,17.8,9.9,40,26,17,30.27,30.18,7,1,13,0.00
2012-1-29,68.1,52.8,42.8,33.0,28.2,22.3,56,40,23,30.19,30.06,5,0,6,0.00
2012-1-30,61.8,51.5,44.2,37.5,32.7,25.9,60,50,27,30.10,29.94,5,0,6,0.00
2012-1-31,61.1,50.7,44.7,38.3,33.4,26.7,68,53,31,30.13,30.01,6,1,8,0.00
2012-2-1,61.7,50.6,44.2,43.9,33.3,26.1,72,53,28,30.22,30.13,4,0,6,0.00
2012-2-2,71.4,51.1,38.8,38.9,24.2,14.0,72,40,17,30.19,29.89,6,1,6,0.00
2012-2-3,65.8,51.1,39.3,27.5,20.8,11.8,48,31,23,29.98,29.91,5,1,8,0.00
2012-2-4,69.8,52.3,41.3,28.7,24.5,19.8,53,36,19,30.04,29.95,5,1,7,0.00
2012-2-5,71.4,54.5,41.7,27.0,21.2,15.6,43,29,17,30.06,29.94,4,1,7,0.00
2012-2-6,71.2,56.5,45.8,34.2,21.8,15.8,52,26,19,29.95,29.70,5,1,6,0.00
2012-2-7,58.6,54.3,50.7,37.3,32.5,25.2,58,44,31,30.07,29.71,6,1,8,0.20
2012-2-8,68.3,54.6,43.3,44.2,32.9,28.1,72,47,23,30.19,30.04,5,1,8,0.00
2012-2-9,72.6,57.2,44.2,35.9,31.3,28.3,60,40,22,30.22,30.09,5,1,8,0.00
2012-2-10,64.5,52.7,42.4,40.0,33.3,25.5,68,49,24,30.16,30.04,6,1,6,0.00
2012-2-11,55.7,51.5,49.4,43.9,37.4,31.2,74,60,42,30.04,29.97,5,1,8,0.04
2012-2-12,60.0,51.2,47.4,34.1,29.9,22.3,57,45,30,30.04,29.92,6,2,9,0.00
2012-2-13,54.8,47.3,40.2,38.8,28.9,22.9,70,50,34,29.95,29.83,8,2,11,0.20
2012-2-14,60.2,46.9,36.3,39.0,28.4,23.3,74,51,25,30.07,29.92,7,1,9,0.00
2012-2-15,59.3,48.7,36.3,39.3,18.8,11.1,70,33,19,30.10,29.98,8,2,16,0.04
2012-2-16,68.1,53.6,40.4,21.7,16.3,10.1,43,23,17,30.21,30.10,8,2,10,0.00
2012-2-17,66.5,50.5,39.2,41.7,30.1,20.6,69,48,24,30.22,30.12,6,1,8,0.00
2012-2-18,62.6,51.7,40.2,45.0,31.9,18.8,76,50,25,30.19,30.06,7,2,10,0.00
2012-2-19,57.9,45.7,36.1,27.9,23.3,18.7,58,43,24,30.10,30.03,7,1,9,0.00
2012-2-20,60.0,50.4,43.5,35.4,29.6,26.2,59,46,29,30.19,30.04,4,0,6,0.00
2012-2-21,65.3,51.6,41.1,40.5,31.9,28.1,70,49,27,30.27,30.16,6,1,8,0.00
2012-2-22,79.5,57.3,46.4,44.1,33.9,28.4,69,46,17,30.24,30.07,7,1,9,0.00
2012-2-23,78.2,59.4,43.8,39.6,26.4,13.1,69,34,15,30.07,29.94,7,1,12,0.00
2012-2-24,75.5,57.7,45.8,31.7,20.8,10.1,49,25,15,30.19,29.95,7,1,8,0.00
2012-2-25,63.8,51.2,41.7,32.4,22.4,17.7,56,34,19,30.30,30.16,8,2,10,0.00
2012-2-26,59.9,46.2,34.3,21.4,18.4,14.7,49,34,19,30.16,29.83,6,2,8,0.00
2012-2-27,56.4,46.1,37.5,24.6,20.1,16.0,50,36,25,29.96,29.77,9,2,13,0.00
2012-2-28,56.4,47.2,37.0,25.8,20.9,17.3,56,36,25,30.21,29.96,11,3,12,0.00
2012-2-29,58.6,49.4,43.7,45.5,29.8,21.6,77,49,28,30.22,30.01,12,4,15,0.35
2012-3-1,57.3,46.8,39.3,45.6,30.8,24.4,77,55,35,30.22,30.15,8,2,11,0.28
2012-3-2,66.5,49.4,35.4,37.3,21.5,12.5,73,39,17,30.33,30.22,6,1,8,0.00
2012-3-3,73.7,54.3,37.0,28.3,22.5,16.5,49,31,18,30.31,30.21,6,1,8,0.00
2012-3-4,76.8,58.1,42.4,32.6,27.2,22.9,50,33,18,30.22,30.02,5,1,8,0.00
2012-3-5,71.9,53.6,42.2,35.9,29.9,24.7,61,43,22,30.09,30.00,6,1,8,0.00
2012-3-6,59.1,49.7,39.2,39.7,20.1,12.1,69,33,19,30.04,29.92,11,4,17,0.00
2012-3-7,65.3,48.9,34.1,20.7,14.5,8.2,36,26,18,30.16,30.02,8,2,13,0.00
2012-3-8,72.5,52.6,36.3,27.5,19.2,14.3,44,28,16,30.31,30.16,7,1,8,0.00
2012-3-9,75.5,54.1,38.3,32.1,22.9,18.4,50,32,16,30.31,30.13,6,1,8,0.00
2012-3-10,62.6,50.3,40.4,32.7,28.4,22.5,55,43,28,30.13,29.98,8,2,10,0.00
2012-3-11,61.3,50.8,42.2,35.0,27.7,23.8,53,41,26,30.06,30.00,8,2,9,0.00
2012-3-12,63.5,50.3,36.5,35.1,24.9,20.9,66,40,23,30.03,29.91,9,3,13,0.00
2012-3-13,54.6,53.3,51.2,38.6,34.7,27.7,62,50,36,29.98,29.86,11,5,13,0.51
2012-3-14,57.2,55.5,53.7,48.6,42.0,34.5,73,61,45,30.09,29.94,9,4,11,0.94
2012-3-15,62.6,57.0,54.8,46.0,42.1,38.6,70,58,44,30.12,30.03,6,1,8,0.04
2012-3-16,59.3,54.6,47.4,45.6,40.2,35.4,74,59,42,30.06,29.71,10,4,13,1.02
2012-3-17,51.4,46.1,40.1,40.1,29.1,21.0,76,54,32,29.71,29.50,8,2,11,0.04
2012-3-18,55.0,47.1,42.8,23.6,18.7,13.6,46,33,23,29.89,29.59,11,5,19,0.00
2012-3-19,59.1,47.4,35.0,23.9,18.2,13.4,54,32,22,30.07,29.89,6,1,8,0.00
2012-3-20,68.5,56.3,47.3,30.4,25.5,20.6,47,31,22,30.18,30.04,7,1,9,0.00
2012-3-21,73.5,56.2,44.9,41.2,32.9,27.1,63,44,21,30.16,29.94,8,1,10,0.00
2012-3-22,59.0,52.3,40.4,41.2,29.1,16.8,64,43,24,30.01,29.92,10,2,11,0.00
2012-3-23,64.7,49.8,37.5,29.2,21.2,16.7,57,35,20,30.06,29.86,8,1,11,0.00
2012-3-24,52.1,46.8,43.3,36.3,28.8,15.1,68,52,23,29.89,29.77,9,1,12,0.63
2012-3-25,59.3,47.5,41.0,35.0,30.8,23.8,70,54,27,29.86,29.74,6,1,8,0.43
2012-3-26,59.7,49.4,38.8,37.6,25.2,19.0,72,42,24,30.06,29.86,9,2,11,0.00
2012-3-27,58.1,53.3,50.1,45.1,30.1,21.1,75,43,27,30.01,29.86,15,5,20,0.71
2012-3-28,68.1,57.0,48.5,49.1,37.1,25.0,75,52,23,30.10,29.92,7,2,11,0.16
2012-3-29,67.4,54.6,46.2,44.5,34.1,26.5,71,49,23,30.13,30.03,8,1,9,0.00
2012-3-30,69.0,58.3,49.2,42.1,35.1,30.3,65,44,24,30.10,29.88,9,2,11,0.00
2012-3-31,58.6,54.2,47.3,40.4,30.4,21.4,71,42,26,30.01,29.70,14,5,15,0.47
2012-4-1,62.2,51.8,44.0,31.5,23.3,19.3,55,34,21,30.25,30.01,9,3,13,0.04
2012-4-2,68.7,51.8,40.2,32.8,26.2,20.6,57,40,20,30.25,30.04,9,1,12,0.00
2012-4-3,67.6,53.5,44.7,39.8,30.7,24.6,63,44,23,30.10,29.97,9,2,11,0.00
2012-4-4,61.7,50.2,39.2,34.0,22.1,15.1,62,35,21,30.18,30.09,9,3,12,0.00
2012-4-5,60.6,47.2,35.4,22.9,18.3,15.4,50,33,22,30.16,30.06,9,2,11,0.00
2012-4-6,64.9,48.9,34.5,30.1,21.1,15.8,59,36,20,30.25,30.13,7,1,9,0.00
2012-4-7,72.1,53.1,37.0,27.4,21.2,16.1,50,31,17,30.16,30.00,6,1,8,0.00
2012-4-8,72.1,51.8,37.9,30.2,22.2,18.4,48,33,19,30.07,29.98,8,2,11,0.00
2012-4-9,72.3,54.8,41.5,34.7,24.1,20.2,56,33,16,30.01,29.82,8,1,9,0.00
2012-4-10,55.7,53.3,50.1,42.8,34.9,20.1,70,51,27,29.89,29.80,6,0,6,1.26
2012-4-11,62.4,54.2,48.0,44.6,33.4,22.6,77,50,25,29.98,29.80,11,3,13,0.12
2012-4-12,64.2,53.4,46.7,40.5,30.3,21.4,70,44,23,30.03,29.83,12,4,13,0.94
2012-4-13,57.0,50.3,45.5,40.4,29.8,20.5,73,48,27,29.86,29.71,10,3,12,0.86
2012-4-14,63.5,52.8,43.3,38.2,26.6,20.0,61,38,24,30.16,29.86,8,2,9,0.00
2012-4-15,68.0,55.4,48.7,40.4,32.2,26.6,66,44,23,30.24,30.16,7,2,8,0.00
2012-4-16,67.6,55.3,45.3,42.6,30.3,24.3,65,41,20,30.25,30.18,6,1,10,0.00
2012-4-17,68.0,57.2,51.2,40.1,34.3,28.8,56,44,24,30.22,30.09,9,2,10,0.00
2012-4-18,71.9,58.4,51.0,39.5,32.4,25.9,54,39,22,30.18,30.12,7,2,11,0.00
2012-4-19,75.3,62.6,55.0,42.2,37.8,33.0,58,42,23,30.21,30.11,6,1,8,0.00
2012-4-20,90.5,69.6,54.8,53.0,38.8,31.5,71,37,16,30.12,29.99,8,1,13,0.00
2012-4-21,93.0,72.3,55.4,41.5,36.9,30.2,51,31,14,30.03,29.90,7,1,10,0.00
2012-4-22,81.3,64.5,54.3,42.5,37.4,30.7,63,39,20,29.96,29.88,6,2,11,0.00
2012-4-23,71.0,61.2,54.5,41.7,34.0,28.4,62,38,23,30.03,29.91,9,3,10,0.00
2012-4-24,75.2,63.3,57.7,37.3,32.9,28.7,45,33,22,30.09,29.99,8,2,11,0.00
2012-4-25,74.4,62.7,56.1,47.5,36.6,29.4,68,40,22,30.06,29.82,8,2,10,0.04
2012-4-26,63.1,56.5,48.2,48.1,33.7,21.0,73,46,24,30.25,29.82,8,3,11,0.12
2012-4-27,67.8,55.5,41.5,37.5,28.0,23.7,65,37,22,30.28,30.18,7,2,10,0.00
2012-4-28,72.1,59.1,47.3,42.9,32.5,28.4,64,39,22,30.19,29.97,8,2,9,0.00
2012-4-29,81.5,63.0,48.5,46.4,34.5,28.7,67,38,17,30.00,29.92,7,1,10,0.00
2012-4-30,77.0,60.1,49.8,41.3,34.3,29.6,60,40,20,30.04,29.98,8,2,11,0.00
2012-5-1,63.1,54.8,49.6,36.3,29.6,23.5,55,39,24,30.01,29.95,9,4,11,0.00
2012-5-2,59.9,53.0,48.5,30.6,26.3,22.6,49,36,25,30.07,29.95,9,4,11,0.00
2012-5-3,62.6,56.2,50.1,41.3,32.6,26.3,56,41,31,30.15,30.01,7,3,9,0.00
2012-5-4,64.2,57.0,50.9,42.0,29.2,23.3,61,36,24,30.28,30.12,8,3,11,0.00
2012-5-5,76.1,59.7,44.4,38.6,28.2,23.3,62,34,15,30.28,30.12,8,2,12,0.00
2012-5-6,84.3,65.6,47.4,36.8,28.6,22.4,52,28,15,30.14,30.08,8,2,12,0.00
2012-5-7,87.4,68.0,50.5,35.7,29.7,23.0,48,26,15,30.11,30.03,9,2,12,0.00
2012-5-8,85.6,66.3,49.4,37.1,31.8,26.5,51,30,16,30.06,29.99,5,1,8,0.00
2012-5-9,75.7,60.7,48.9,37.0,31.0,24.7,54,34,20,30.06,29.99,6,2,9,0.00
2012-5-10,80.4,63.0,47.4,33.8,29.6,22.8,53,31,17,30.01,29.93,8,2,9,0.00
2012-5-11,85.8,66.2,49.1,35.2,27.9,20.1,47,25,15,30.06,29.94,7,1,9,0.00
2012-5-12,81.8,61.9,48.7,33.4,28.0,19.7,47,29,17,30.16,30.06,7,2,9,0.00
2012-5-13,68.5,57.3,49.8,38.2,31.7,25.8,59,40,23,30.18,30.09,9,2,12,0.00
2012-5-14,69.4,59.8,51.2,35.5,29.2,24.3,47,32,22,30.18,30.12,8,2,12,0.00
2012-5-15,67.6,57.0,51.6,36.8,32.3,27.3,53,41,24,30.16,30.09,8,2,8,0.00
2012-5-16,67.8,56.3,51.2,41.0,35.1,28.4,67,47,25,30.13,30.03,6,2,9,0.00
2012-5-17,62.4,55.8,51.6,36.7,31.0,26.9,56,40,27,30.07,29.94,9,4,14,0.00
2012-5-18,74.4,58.3,46.4,38.4,28.8,23.3,59,35,18,30.07,29.98,7,2,10,0.00
2012-5-19,75.9,60.0,46.4,37.0,28.3,24.7,56,32,18,30.07,30.01,8,2,9,0.00
2012-5-20,80.4,61.6,49.1,36.9,30.7,26.9,50,33,17,30.12,30.02,8,2,9,0.00
2012-5-21,66.0,58.2,53.0,42.9,36.3,30.7,56,45,27,30.21,30.09,7,2,10,0.00
2012-5-22,68.7,61.0,53.6,46.0,36.1,27.2,72,43,23,30.21,30.12,8,2,11,0.00
2012-5-23,70.1,59.5,49.6,40.8,31.2,26.2,60,37,22,30.15,30.00,9,2,13,0.00
2012-5-24,69.0,58.4,48.3,37.5,30.5,25.6,56,37,22,30.01,29.85,9,2,14,0.00
2012-5-25,63.5,56.9,49.4,34.0,25.8,20.4,47,31,24,29.92,29.80,8,4,12,0.00
2012-5-26,56.6,52.9,50.7,33.7,31.8,29.6,50,45,36,30.18,29.92,8,3,15,0.00
2012-5-27,64.4,56.5,51.6,34.0,31.0,26.6,50,39,26,30.24,30.16,8,3,10,0.00
2012-5-28,64.2,57.1,51.6,38.9,29.4,24.3,59,36,24,30.18,30.09,9,4,11,0.00
2012-5-29,69.4,57.6,50.9,35.0,30.3,25.3,50,37,22,30.16,30.10,7,3,9,0.00
2012-5-30,56.8,53.3,51.2,36.5,33.1,30.1,54,46,36,30.19,30.15,4,0,4,0.00
2012-5-31,86.5,66.2,48.3,37.3,32.4,27.5,55,32,16,30.16,29.96,7,2,8,0.00
2012-6-1,83.8,64.9,53.2,39.7,35.1,29.7,53,35,19,29.99,17.89,7,2,9,0.00
2012-6-2,70.1,59.4,53.6,44.8,37.5,30.7,68,47,24,17.89,17.89,8,4,13,0.00
2012-6-3,73.9,60.5,51.9,38.4,32.5,25.4,59,38,21,17.89,17.89,7,3,11,0.00
2012-6-4,60.9,57.1,52.1,46.7,36.1,29.0,69,46,32,30.10,29.88,8,3,15,0.12
2012-6-5,66.9,57.7,48.9,35.6,27.3,21.2,54,33,22,30.15,30.07,10,3,13,0.00
2012-6-6,69.4,57.4,46.0,38.9,29.0,24.6,57,36,20,30.10,29.97,8,2,11,0.00
2012-6-7,69.9,59.4,50.0,39.2,32.8,27.9,54,38,23,30.00,29.95,8,3,11,0.00
2012-6-8,69.8,60.2,53.0,38.7,31.3,24.6,55,36,22,29.97,29.88,10,3,13,0.00
2012-6-10,85.8,81.5,65.4,34.4,31.5,20.1,18,16,16,29.91,29.87,8,3,9,0.00
2012-6-11,84.3,74.5,55.9,33.2,28.4,20.8,38,19,16,29.96,29.88,5,2,6,0.00
2012-6-12,58.4,56.6,52.8,37.3,36.1,32.6,50,46,38,29.94,29.92,5,2,6,0.00
2012-6-13,57.9,55.5,54.6,37.1,35.5,31.6,48,47,38,29.94,29.76,5,4,6,0.00
2012-6-14,73.0,61.4,53.9,37.2,31.4,26.5,52,33,22,29.82,29.76,7,3,8,0.00
2012-6-15,84.3,65.3,48.9,39.0,31.2,26.9,55,31,16,29.82,29.74,7,2,9,0.00
2012-6-16,98.2,76.4,57.0,39.5,34.3,28.0,44,24,13,29.84,29.78,7,1,11,0.00
2012-6-17,82.9,68.0,55.4,38.0,33.5,28.9,52,29,19,29.88,29.79,8,2,10,0.00
2012-6-18,72.8,60.4,52.3,39.3,32.8,25.7,55,37,22,29.89,29.82,8,3,10,0.00
2012-6-19,80.6,63.2,48.5,36.7,30.1,24.9,53,31,17,29.90,29.79,8,2,11,0.00
2012-6-20,91.2,69.8,53.0,37.0,32.2,25.6,46,27,15,29.83,29.79,8,2,11,0.00
2012-6-21,55.7,54.0,53.0,36.7,33.8,29.7,53,47,39,29.95,29.83,6,2,8,0.00
2012-6-22,68.7,58.4,51.4,39.0,31.5,27.8,50,37,23,29.94,29.82,8,3,8,0.00
2012-6-23,67.8,59.7,52.5,38.9,30.2,25.2,51,34,22,29.92,29.82,9,3,11,0.00
2012-6-24,69.2,58.7,47.8,38.5,28.8,22.4,56,34,20,30.03,29.92,8,2,10,0.00
2012-6-25,70.3,59.9,49.2,38.3,30.9,25.5,55,35,22,30.06,30.00,8,2,12,0.00
2012-6-26,74.1,62.3,48.5,36.3,31.4,27.4,53,33,21,30.04,29.88,8,2,9,0.00
2012-6-27,80.2,63.9,50.1,38.2,32.0,25.9,54,33,17,29.94,29.85,7,2,10,0.00
2012-6-28,73.7,62.4,52.5,41.0,34.8,29.2,55,38,21,30.06,29.91,8,2,9,0.00
2012-6-29,69.6,61.3,56.4,45.6,39.3,33.0,65,46,26,30.09,30.00,7,2,11,0.00
2012-6-30,73.4,63.8,58.2,46.8,41.4,35.9,60,46,26,30.03,29.91,7,3,9,0.00
2012-7-1,68.0,61.8,57.9,46.3,40.5,35.5,57,46,34,29.94,29.88,7,3,9,0.00
2012-7-2,69.8,62.1,56.3,41.7,36.5,29.8,53,40,24,29.88,29.82,8,3,11,0.00
2012-7-3,77.0,63.5,54.3,37.0,33.1,28.4,50,34,20,29.88,29.81,9,3,13,0.00
2012-7-4,77.9,62.1,51.4,39.4,33.5,27.7,53,36,20,29.88,29.77,9,2,13,0.00
2012-7-5,67.4,60.4,55.7,37.7,32.9,28.2,49,37,24,29.97,29.85,8,3,9,0.00
2012-7-6,77.3,63.7,54.8,38.4,34.0,28.0,52,35,20,30.00,29.93,6,2,8,0.00
2012-7-7,87.6,67.0,51.2,38.0,33.9,27.3,52,32,16,29.97,29.90,7,2,10,0.00
2012-7-8,72.5,60.6,53.4,41.1,35.3,29.1,59,41,22,30.00,29.95,6,2,11,0.00
2012-7-9,74.8,61.8,54.6,39.5,34.7,28.4,55,39,21,30.03,29.94,6,2,10,0.00
2012-7-10,90.1,68.2,53.6,41.1,35.1,26.1,59,34,15,29.95,29.82,7,1,8,0.00
2012-7-11,93.9,70.4,53.0,37.4,33.4,27.8,48,28,14,29.87,29.80,7,1,8,0.00
2012-7-12,84.0,65.8,54.6,37.2,33.8,28.3,48,33,16,29.88,29.79,7,2,8,0.00
2012-7-13,66.2,58.2,53.2,37.8,34.5,29.5,54,42,26,29.91,29.83,8,3,13,0.00
2012-7-14,74.4,61.5,54.6,38.8,34.4,28.4,54,38,21,29.91,29.85,8,3,10,0.00
2012-7-15,76.4,63.1,55.4,40.2,35.6,29.2,54,38,21,29.88,29.82,9,2,11,0.00
2012-7-16,67.1,60.8,56.6,40.5,34.5,28.7,53,38,25,29.88,29.79,10,4,16,0.00
2012-7-17,71.2,61.9,55.0,39.4,32.5,27.8,52,34,22,29.97,29.85,8,3,11,0.00
2012-7-18,71.9,62.4,53.9,37.4,33.0,28.1,47,35,22,29.98,29.91,8,2,12,0.00
2012-7-19,73.7,63.0,55.0,40.6,35.6,30.3,52,38,21,30.03,29.94,8,2,11,0.00
2012-7-20,83.6,67.1,57.3,43.1,37.2,30.6,56,36,19,30.06,29.97,8,2,8,0.00
2012-7-21,93.0,71.6,55.5,40.3,35.5,30.0,50,30,14,30.00,29.87,8,2,11,0.00
2012-7-22,85.4,66.9,54.5,41.2,35.5,28.9,55,35,16,29.91,29.84,7,1,8,0.00
2012-7-23,80.6,64.5,56.8,37.8,34.5,28.9,48,35,19,29.91,29.87,9,2,11,0.00
2012-7-24,75.9,63.3,54.5,38.7,34.8,28.9,51,37,20,29.94,29.88,8,2,13,0.00
2012-7-25,73.2,62.7,54.8,40.3,34.9,29.3,52,37,22,29.97,29.91,10,3,11,0.00
2012-7-26,70.5,61.1,56.3,39.0,34.5,29.2,51,38,23,29.97,29.88,8,3,11,0.00
2012-7-27,75.0,62.0,55.7,38.9,34.7,28.3,52,38,21,30.00,29.91,8,2,11,0.00
2012-7-28,72.6,62.0,56.1,40.0,35.9,30.0,53,40,22,30.03,29.97,8,2,8,0.00
2012-7-29,77.1,62.7,55.4,39.8,35.5,29.1,55,39,20,30.03,29.94,7,2,9,0.00
2012-7-30,88.5,68.2,56.6,42.2,36.6,28.0,55,35,15,29.97,29.87,7,1,9,0.00
2012-7-31,84.0,67.7,54.5,40.1,34.2,28.8,51,32,16,29.97,29.88,6,1,8,0.00
2012-8-1,85.2,64.9,51.2,44.9,34.7,28.9,61,36,16,30.03,29.96,7,1,9,0.00
2012-8-2,85.1,64.7,51.0,45.2,35.1,28.3,61,37,16,29.98,29.87,7,2,8,0.00
2012-8-3,78.6,62.7,54.8,43.2,36.0,28.3,62,40,20,29.89,29.79,8,2,9,0.00
2012-8-4,68.5,59.8,55.0,42.5,37.5,32.7,54,44,27,29.97,29.80,8,2,11,0.00
2012-8-5,72.5,62.6,57.2,44.6,37.7,30.0,60,42,23,30.06,29.94,8,3,11,0.00
2012-8-6,80.2,64.6,56.3,39.1,35.3,30.4,49,36,20,30.09,30.02,6,2,7,0.00
2012-8-7,74.6,64.4,53.9,42.1,34.5,28.1,56,35,21,30.03,29.97,8,2,10,0.00
2012-8-8,86.3,66.3,51.4,41.1,34.1,27.4,57,34,16,29.98,29.90,7,1,7,0.00
2012-8-9,91.0,68.6,52.5,39.2,34.6,28.6,53,32,15,29.94,29.84,6,1,8,0.00
2012-8-10,86.1,67.2,55.2,38.8,34.7,29.3,49,33,16,29.85,29.75,7,1,9,0.00
2012-8-11,90.6,67.3,51.2,39.5,34.4,27.3,54,33,15,29.82,29.74,7,1,8,0.00
2012-8-12,84.9,66.9,54.5,41.9,34.8,28.1,58,34,16,29.85,29.78,7,1,7,0.00
2012-8-13,90.6,71.0,57.0,38.6,34.3,25.6,47,29,15,29.82,29.78,6,1,8,0.00
2012-8-14,79.3,66.5,57.5,38.4,34.3,30.0,46,32,20,29.82,29.75,7,2,11,0.00
2012-8-15,75.7,63.0,57.5,41.6,36.3,29.2,55,39,21,29.88,29.76,9,2,11,0.00
2012-8-16,81.1,64.6,57.0,40.1,36.8,29.8,53,38,19,29.94,29.85,6,2,8,0.00
2012-8-17,76.1,63.1,56.3,41.4,36.9,30.4,56,40,21,29.97,29.91,6,2,8,0.00
2012-8-18,77.1,65.4,57.9,41.2,35.5,30.1,51,35,20,29.97,29.91,7,2,9,0.00
2012-8-20,57.0,55.9,55.4,39.2,37.7,36.2,53,50,46,29.88,29.88,3,0,4,0.00
2012-8-21,74.1,61.9,55.4,39.7,35.5,28.9,52,40,21,29.91,29.85,7,2,9,0.00
2012-8-22,73.0,61.4,56.4,41.0,36.8,30.3,55,42,22,29.91,29.85,7,2,9,0.00
2012-8-23,77.5,64.5,54.5,42.5,37.2,29.4,53,39,20,29.91,29.84,7,2,9,0.00
2012-8-24,79.5,62.1,50.1,43.3,34.8,28.2,58,39,20,29.89,29.81,8,2,10,0.00
2012-8-25,70.7,60.0,55.2,40.0,35.7,27.9,53,42,23,29.86,29.79,8,2,11,0.00
2012-8-26,68.7,60.9,54.3,36.8,32.0,26.4,47,35,23,29.98,29.82,8,3,11,0.00
2012-8-27,77.3,62.1,53.9,38.9,36.6,33.2,50,40,21,30.03,29.95,7,1,7,0.00
2012-8-28,84.2,70.4,54.5,43.0,34.2,29.2,53,29,16,30.00,29.93,7,2,10,0.00
2012-8-29,90.8,68.8,51.6,40.8,33.4,26.8,53,30,15,29.94,29.78,7,1,9,0.00
2012-8-30,76.2,63.5,53.7,38.5,31.9,25.7,50,32,20,29.82,29.74,7,2,11,0.00
2012-8-31,61.8,58.0,56.4,38.0,35.3,32.1,49,43,34,29.94,29.82,8,3,13,0.00
2012-9-1,72.6,60.7,53.7,37.0,33.3,28.1,49,37,22,30.00,29.91,6,2,8,0.00
2012-9-2,87.0,66.0,50.0,40.5,32.1,22.4,57,32,16,29.95,29.87,8,1,8,0.00
2012-9-3,89.9,68.5,52.1,36.0,29.9,22.7,46,26,15,29.94,29.88,7,1,9,0.00
2012-9-4,78.4,61.7,50.0,42.2,31.5,22.1,58,34,18,30.00,29.93,6,1,8,0.00
2012-9-5,72.1,61.0,55.0,40.9,35.5,28.6,57,41,22,29.97,29.91,8,1,9,0.00
2012-9-6,76.6,62.0,54.3,39.4,33.8,26.7,52,37,20,30.00,29.91,6,2,8,0.00
2012-9-7,76.6,61.5,51.0,39.0,32.0,26.8,53,35,18,30.06,29.97,7,1,9,0.00
2012-9-8,70.1,60.4,55.2,38.0,33.1,26.9,51,37,23,30.03,29.94,7,2,10,0.00
2012-9-9,71.0,60.7,53.0,39.0,33.9,28.3,52,38,22,29.98,29.88,7,2,8,0.00
2012-9-10,81.6,65.4,56.1,39.0,34.7,27.6,51,35,17,29.91,29.79,8,1,8,0.00
2012-9-11,78.8,62.5,51.0,41.2,34.0,28.6,55,37,20,29.94,29.80,6,1,8,0.00
2012-9-12,77.1,62.7,50.7,44.6,34.5,28.8,61,38,20,30.03,29.92,8,1,8,0.00
2012-9-13,82.0,63.8,54.8,41.0,35.2,29.1,53,37,19,30.06,29.96,6,1,8,0.00
2012-9-14,76.4,62.1,55.4,42.2,35.7,28.4,59,40,20,30.06,29.96,6,1,8,0.00
2012-9-15,78.0,62.4,53.4,40.0,34.3,27.7,57,38,18,30.06,29.96,6,1,6,0.00
2012-9-16,78.4,60.4,50.0,47.5,34.2,27.9,68,41,18,30.01,29.93,7,1,8,0.00
2012-9-17,69.4,59.0,53.0,39.0,34.1,27.8,55,41,23,30.03,29.97,8,2,8,0.00
2012-9-18,70.1,58.9,52.5,38.9,32.5,27.4,52,38,22,30.07,30.00,7,2,8,0.00
2012-9-19,68.7,59.2,54.1,39.2,33.6,27.9,52,39,23,30.09,30.00,7,2,11,0.00
2012-9-20,71.0,60.2,54.5,36.2,32.6,27.1,49,37,22,30.03,29.94,4,0,5,0.00
2012-9-21,80.0,62.4,50.7,39.8,32.2,24.9,54,35,17,29.98,29.85,6,1,6,0.00
2012-9-22,84.3,64.4,49.8,38.0,31.0,22.7,51,31,16,29.89,29.84,7,1,8,0.00
2012-9-23,82.7,64.9,51.9,36.2,29.8,22.1,48,28,16,29.94,29.86,6,1,8,0.00
2012-9-24,76.1,61.9,50.5,40.0,33.1,27.2,54,36,20,29.94,29.84,6,1,8,0.00
2012-9-25,77.5,61.1,50.3,40.3,33.9,28.2,54,39,20,29.89,29.81,7,1,8,0.00
2012-9-26,75.0,61.4,54.1,39.3,35.0,28.3,53,40,21,29.86,29.81,6,1,8,0.00
2012-9-27,80.0,61.9,50.1,42.8,34.5,29.2,60,39,20,29.89,29.79,6,1,9,0.00
2012-9-28,68.7,58.4,52.1,46.3,36.2,31.8,68,45,26,29.92,29.83,6,0,8,0.00
2012-9-29,81.1,63.7,55.0,47.6,37.7,28.6,67,43,19,30.00,29.91,5,0,8,0.00
2012-9-30,93.3,69.9,53.9,43.3,34.2,23.5,55,31,14,30.03,29.93,6,1,8,0.00
2012-10-1,97.7,75.2,58.4,39.1,28.9,20.8,25,19,13,29.97,29.87,6,1,9,0.00
2012-10-2,100.4,78.0,60.8,40.4,28.1,18.2,19,16,12,29.88,29.78,6,1,8,0.00
2012-10-3,88.8,70.3,58.8,40.2,29.5,20.1,50,24,15,29.97,29.79,7,2,9,0.00
2012-10-4,72.6,61.9,57.5,41.8,36.7,30.4,53,41,22,30.12,29.97,8,2,10,0.00
2012-10-5,72.6,62.9,55.7,39.1,35.7,29.8,48,38,22,30.12,30.03,8,2,10,0.00
2012-10-6,72.3,60.6,53.6,48.7,34.0,26.3,63,40,21,30.04,29.94,6,1,8,0.00
2012-10-7,72.3,60.3,52.1,38.2,33.8,27.8,49,38,22,29.98,29.91,6,1,10,0.00
2012-10-8,70.8,59.3,50.5,43.1,34.2,28.6,60,41,22,30.00,29.94,7,1,9,0.00
2012-10-9,72.5,61.5,52.3,43.2,34.9,28.9,58,39,22,30.01,29.91,7,1,10,0.00
2012-10-10,71.0,59.7,53.4,41.2,35.0,28.4,55,41,23,29.92,29.85,7,2,8,0.00
2012-10-11,58.1,56.7,55.9,37.5,35.5,32.4,49,45,38,29.91,29.82,6,2,11,0.00
2012-10-12,63.1,57.0,50.3,44.9,33.8,27.2,67,43,26,30.19,29.91,5,1,9,0.00
2012-10-13,72.3,58.6,48.0,41.8,33.5,28.3,64,42,22,30.24,30.14,7,1,8,0.00
2012-10-14,74.4,62.8,56.3,52.5,41.9,33.4,70,49,23,30.15,30.03,6,1,6,0.00
2012-10-15,79.8,64.0,55.7,55.2,42.8,31.0,73,50,20,30.06,29.93,6,1,7,0.00
2012-10-16,78.6,65.8,58.8,53.8,44.4,36.4,71,49,23,29.97,29.85,8,1,8,0.00
2012-10-17,90.8,68.9,53.9,41.9,32.1,17.4,60,30,14,29.86,29.81,7,1,8,0.00
2012-10-18,89.6,71.6,56.1,44.9,29.0,15.3,46,22,15,30.00,29.82,6,2,8,0.00
2012-10-19,73.4,64.9,57.9,50.4,43.7,37.2,59,47,28,30.03,29.88,6,2,10,0.00
2012-10-20,66.2,57.9,49.8,48.8,39.1,30.0,70,51,31,29.91,29.76,8,2,10,0.00
2012-10-21,63.8,54.4,47.1,35.6,28.2,22.0,55,38,23,29.89,29.80,8,2,10,0.00
2012-10-22,64.5,56.4,51.6,49.3,33.2,23.2,73,44,24,29.89,29.65,9,3,11,0.55
2012-10-23,65.3,55.2,48.7,46.9,31.4,20.7,70,44,20,30.00,29.89,8,1,9,0.04
2012-10-24,67.2,56.6,48.2,38.0,30.5,23.6,55,39,22,30.15,29.95,7,2,9,0.04
2012-10-25,68.3,57.7,50.5,37.0,31.0,22.6,53,38,23,30.19,30.09,6,2,8,0.04
2012-10-26,74.1,58.4,45.3,28.7,25.6,22.6,43,30,16,30.16,30.03,8,1,8,0.00
2012-10-27,80.6,63.8,51.4,43.3,33.3,27.9,56,34,17,30.04,29.93,6,1,6,0.00
2012-10-28,80.7,64.4,54.5,46.2,36.9,30.6,59,39,19,30.00,29.90,6,1,7,0.00
2012-10-29,75.0,60.0,52.7,55.7,39.7,30.4,73,51,22,30.06,29.97,5,0,6,0.00
2012-10-30,69.9,57.7,50.1,51.9,41.8,31.3,74,58,24,30.03,29.91,5,0,8,0.00
2012-10-31,63.3,60.0,57.5,48.1,39.7,33.2,70,49,33,29.97,29.91,8,2,8,0.04
2012-11-1,66.9,59.8,51.4,55.1,42.5,34.6,72,54,33,30.01,29.91,6,1,7,0.31
2012-11-2,69.6,55.3,46.0,46.6,33.9,26.8,71,48,23,30.01,29.97,6,1,7,0.00
2012-11-3,75.9,59.5,48.3,42.5,33.2,25.4,65,41,20,30.09,29.98,7,1,8,0.00
2012-11-4,82.5,64.0,52.3,45.7,34.5,27.3,59,37,16,30.15,30.07,6,1,7,0.00
2012-11-5,87.0,68.2,55.4,39.5,33.7,28.7,47,31,16,30.09,30.00,4,1,6,0.00
2012-11-6,83.6,66.2,54.1,39.0,35.2,30.7,48,34,19,30.03,29.96,5,1,8,0.00
2012-11-7,66.5,57.4,53.6,50.1,39.1,33.3,73,52,29,30.00,29.89,7,2,11,0.00
2012-11-8,61.7,52.8,42.8,38.4,26.0,18.9,56,36,24,29.91,29.83,8,3,13,0.08
2012-11-9,58.6,48.4,41.5,40.2,25.5,18.4,69,43,25,29.92,29.80,7,1,8,0.24
2012-11-10,60.9,48.4,39.7,32.2,22.9,18.3,57,39,21,30.16,29.89,8,1,9,0.00
2012-11-11,63.6,48.4,37.9,37.2,23.4,16.4,67,40,21,30.31,30.16,6,1,8,0.00
2012-11-12,66.9,50.7,40.1,24.4,19.4,15.1,46,30,17,30.28,30.18,5,1,6,0.00
2012-11-13,72.6,55.6,42.9,27.8,20.4,16.1,37,26,16,30.19,30.03,5,1,6,0.00
2012-11-14,71.9,56.4,46.5,30.4,23.4,18.0,38,28,19,30.04,29.94,5,1,7,0.00
2012-11-15,69.6,56.5,46.0,30.3,25.9,19.4,45,32,20,29.95,29.88,6,1,8,0.00
2012-11-16,64.5,57.0,48.7,42.1,34.9,26.2,56,44,24,29.95,29.79,4,1,7,0.08
2012-11-17,60.4,58.9,57.5,51.7,45.9,39.2,74,63,47,29.82,29.70,7,2,9,0.35
2012-11-18,53.4,52.6,51.9,32.3,29.6,26.8,46,41,36,30.10,30.07,0,0,0,0.04
2012-11-19,68.0,57.0,47.4,34.4,28.6,23.5,50,35,20,30.15,30.09,7,1,8,0.00
2012-11-20,66.5,60.4,51.9,41.5,33.9,29.2,52,37,29,30.10,29.97,8,4,12,0.00
2012-11-21,67.2,58.1,46.0,54.7,39.5,28.6,77,53,26,30.13,29.94,7,1,7,0.79
2012-11-22,66.7,52.5,42.8,43.5,29.6,22.6,71,45,23,30.19,30.10,4,0,4,0.00
2012-11-23,72.1,54.5,42.9,42.3,28.7,23.0,65,40,19,30.18,30.08,5,1,6,0.00
2012-11-24,72.3,55.3,43.3,34.7,28.2,23.2,53,37,19,30.10,29.95,5,1,6,0.00
2012-11-25,61.3,50.7,43.7,45.6,33.7,28.5,69,53,35,29.95,29.85,5,0,6,0.00
2012-11-26,66.9,51.8,42.6,45.7,33.0,27.3,74,52,24,30.01,29.89,5,1,8,0.00
2012-11-27,64.5,55.1,46.9,47.9,33.9,26.2,71,47,25,30.03,29.92,6,1,8,0.00
2012-11-28,60.6,56.3,52.7,50.8,34.0,28.7,74,44,32,29.98,29.76,8,2,9,0.35
2012-11-29,61.3,59.3,55.0,48.6,35.6,26.7,65,42,27,29.97,29.79,10,4,15,0.04
2012-11-30,61.1,59.5,56.3,55.5,49.2,38.5,85,70,45,29.94,29.70,10,4,13,2.24
2012-12-1,63.6,59.8,57.0,49.9,41.0,35.2,72,50,37,29.94,29.82,10,4,11,0.39
2012-12-2,62.6,56.3,46.5,55.1,41.7,25.7,81,60,28,30.04,29.67,13,3,16,1.14
2012-12-3,64.9,52.3,42.6,47.5,32.5,24.7,75,50,23,30.10,29.98,5,0,8,0.00
2012-12-4,62.9,56.3,48.9,41.0,32.8,23.3,59,42,25,30.13,30.06,5,0,7,0.00
2012-12-5,65.1,60.0,55.9,54.0,44.0,25.2,71,57,26,30.06,29.97,6,1,9,0.51
2012-12-6,60.4,54.8,46.5,47.5,37.2,25.6,73,54,28,30.04,29.97,4,0,5,0.00
2012-12-7,66.0,51.5,43.5,47.5,32.4,23.3,76,52,24,30.04,29.97,6,1,6,0.00
2012-12-8,64.7,50.0,42.2,44.5,28.8,21.0,73,47,20,30.01,29.92,5,1,6,0.00
2012-12-9,69.9,53.4,42.2,28.9,24.8,19.9,54,35,19,30.10,29.98,6,1,8,0.00
2012-12-10,72.8,58.9,46.4,28.1,23.9,20.3,45,27,19,30.15,30.01,8,2,10,0.00
2012-12-11,62.6,50.9,42.4,34.8,28.3,23.5,55,42,24,30.01,29.77,7,2,9,0.00
2012-12-12,58.2,49.6,39.3,44.1,29.7,18.8,77,50,25,29.81,29.74,8,2,12,0.08
2012-12-13,55.9,43.2,36.6,35.2,22.4,14.8,71,46,22,29.83,29.77,5,1,6,0.00
2012-12-14,52.1,42.7,35.7,31.4,23.5,17.9,59,48,27,29.93,29.72,4,0,4,0.00
2012-12-15,50.0,43.0,36.1,39.0,28.9,22.5,74,58,36,29.98,29.89,4,0,6,0.20
2012-12-16,56.1,51.5,44.2,40.2,30.4,25.2,59,45,32,30.01,29.92,7,1,9,0.00
2012-12-17,57.2,52.5,42.6,49.1,36.5,25.5,79,56,38,29.98,29.86,9,2,11,0.24
2012-12-18,53.7,43.6,35.9,28.2,17.3,8.1,57,37,20,30.11,29.89,9,2,13,0.00
2012-12-19,57.3,41.1,30.9,24.7,13.7,7.8,55,35,20,30.22,30.08,4,1,6,0.00
2012-12-20,59.3,48.0,34.8,20.0,14.2,9.0,38,26,19,30.11,29.92,9,3,11,0.00
2012-12-21,57.2,53.0,50.1,44.9,26.0,14.8,73,38,22,29.92,29.77,11,5,19,0.20
2012-12-22,58.8,52.1,48.5,43.0,33.2,22.4,74,50,27,30.01,29.74,11,3,13,0.79
2012-12-23,55.0,51.5,46.0,47.9,37.9,26.5,77,61,37,30.01,29.77,11,3,13,1.02
2012-12-24,60.4,47.8,40.6,43.5,28.3,18.1,78,51,24,30.10,29.92,5,1,7,0.00
2012-12-25,49.4,45.3,39.9,40.6,27.3,21.4,72,49,37,30.04,29.68,8,1,12,0.59
2012-12-26,55.5,48.2,41.9,43.4,32.5,21.2,75,57,27,30.01,29.74,10,1,13,0.16
2012-12-27,58.1,45.7,37.7,35.0,24.1,15.8,67,45,22,30.07,29.98,7,1,7,0.00
2012-12-28,50.1,43.3,36.6,29.4,22.2,16.6,60,44,27,30.08,29.92,6,1,8,0.00
2012-12-29,55.9,44.8,36.8,26.8,22.0,13.5,53,41,25,29.99,29.89,5,1,8,0.04
2012-12-30,57.5,43.6,35.6,36.9,20.9,13.1,68,43,22,30.08,29.93,7,0,8,0.00
2012-12-31,57.9,42.3,32.3,19.9,15.4,11.0,52,35,19,30.19,30.08,5,1,6,0.00
2013-1-1,54.5,43.4,34.3,20.5,16.8,13.5,45,35,23,30.16,30.10,8,2,10,0.00